Tracking 19792 objects as of 16-Jul-2019
HD Live streaming from Space Station
objects crossing your sky now

NOAA 16 DEB

Track NOAA 16 DEB now!
10-day predictions


NORAD ID: 41658
Int'l Code: 2000-055NX
Perigee: 814.7 km
Apogee: 860.9 km
Inclination: 98.9 °
Period: 101.5 minutes
Semi major axis: 7208 km
RCS: Unknown
Launch date: September 21, 2000
Source: United States (US)
Launch site: AIR FORCE WESTERN TEST RANGE (AFWTR)

Note: This is SATELLITE DEBRIS
aabbcc
Your satellite tracking list
Your tracking list is empty




NASA's NSSDC Master Catalog

Two Line Element Set (TLE):
1 41658U 00055NX  19196.50681052  .00000963  00000-0  48594-3 0  9998
2 41658  98.8891 284.0649 0032029 222.2223 137.6486 14.18420878167623
Source of the keplerian elements: AFSPC